Home   Weather   Garbsen   Past weeks

Flag for Germany Past Weather in Garbsen, Lower Saxony, Germany — Yesterday and Last 2 Weeks

Now
64 °F

Sprinkles. Partly sunny.


Feels Like: 64 °F
Forecast: 60 / 71 °F
Wind: 5 mph from East

Location: Hannover

Current Time: Jul 22, 2017 at 12:37:23 pm

Latest Report: Jul 22, 2017 at 11:50 am


Visibility: N/A

Pressure: 29.95 "Hg

Humidity: 94%

Dew Point: 63 °F

Location of GarbsenLocation

Past Weather in Garbsen — Graph

°F

Garbsen Temperature Yesterday

Maximum temperature yesterday: 75 °F (at 4:50 pm)
Minimum temperature yesterday: 59 °F (at 5:20 am)
Average temperature yesterday: 67 °F

High & Low Weather Summary for the Past Weeks

 TemperatureHumidityPressure
High86 °F (Jul 19, 4:20 pm)100% (Jul 7, 9:06 pm)30.21 "Hg (Jul 7, 9:06 pm)
Low50 °F (Jul 18, 5:20 am)40% (Jul 14, 12:50 pm)29.68 "Hg (Jul 12, 2:06 pm)
Average64 °F78%29.98 "Hg
* Reported Jul 7 11:20 am — Jul 22 11:20 am, Garbsen. Weather by CustomWeather, © 2017

Note: Actual official high and low records may vary slightly from our data, if they occured in-between our weather recording intervals... More about our weather records

Advertising

Garbsen Weather History for the Previous 24 Hours

Scroll right to see more
 ConditionsComfort  
Time TempWeatherWind HumidityBarometerVisibility
11:20 am
Sat, Jul 22
63 °FSprinkles. Partly sunny.3 mph94%29.95 "HgN/A
10:57 am63 °FRain showers. Broken clouds.5 mph94%29.92 "HgN/A
10:50 am63 °FSprinkles. Broken clouds.5 mph94%29.95 "HgN/A
10:23 am63 °FSprinkles. Partly sunny.5 mph94%29.92 "Hg4 mi
10:20 am63 °FRain showers. Partly sunny.6 mph94%29.92 "Hg3 mi
9:50 am63 °FRain showers. Partly sunny.2 mph94%29.92 "Hg4 mi
9:33 am63 °FRain showers. Partly sunny.7 mph94%29.92 "HgN/A
8:50 am64 °FSprinkles. Broken clouds.3 mph83%29.92 "HgN/A
8:20 am63 °FSunny.3 mph88%29.92 "Hg10 mi
7:50 am63 °FPassing clouds.5 mph83%29.92 "HgN/A
7:20 am63 °FPassing clouds.3 mph83%29.92 "HgN/A
6:50 am63 °FSprinkles. Clear.6 mph83%29.89 "HgN/A
6:20 am63 °FSunny.7 mph83%29.89 "Hg10 mi
5:50 am59 °FSunny.2 mph88%29.89 "Hg10 mi
5:20 am59 °FClear.2 mph88%29.89 "Hg10 mi
4:50 am59 °FClear.5 mph88%29.89 "Hg10 mi
4:20 am61 °FClear.5 mph83%29.89 "Hg10 mi
3:50 am61 °FClear.5 mph83%29.89 "Hg10 mi
3:20 am61 °FClear.6 mph83%29.89 "Hg10 mi
2:20 am61 °FClear.5 mph83%29.92 "Hg10 mi
1:50 am61 °FClear.3 mph83%29.92 "Hg10 mi
1:20 am61 °FClear.3 mph83%29.92 "Hg10 mi
12:50 am63 °FClear.7 mph77%29.92 "Hg10 mi
12:20 am63 °FClear.6 mph77%29.92 "Hg10 mi
11:50 pm
Fri, Jul 21
63 °FClear.5 mph83%29.92 "Hg10 mi
11:20 pm64 °FClear.5 mph73%29.92 "Hg10 mi
10:50 pm64 °FClear.5 mph73%29.92 "Hg10 mi
10:20 pm64 °FPassing clouds.6 mph73%29.92 "HgN/A
9:50 pm66 °FClear.6 mph68%29.92 "Hg10 mi
9:20 pm66 °FSunny.7 mph73%29.92 "Hg10 mi
8:50 pm68 °FSunny.6 mph69%29.92 "Hg10 mi
8:20 pm70 °FSunny.6 mph64%29.92 "Hg10 mi
7:50 pm72 °FSunny.8 mph61%29.92 "Hg10 mi
7:20 pm72 °FSunny.7 mph61%29.92 "Hg10 mi
6:50 pm73 °FSunny.6 mph57%29.92 "Hg10 mi
6:31 pm75 °FSunny.6 mph54%29.92 "Hg10 mi
6:20 pm75 °FPassing clouds.7 mph54%29.92 "HgN/A
5:50 pm75 °FSunny.3 mph47%29.92 "Hg10 mi
5:20 pm75 °FPassing clouds.3 mph47%29.95 "HgN/A
4:50 pm75 °FPassing clouds.5 mph47%29.95 "HgN/A
4:20 pm73 °FPassing clouds.6 mph53%29.95 "HgN/A
3:50 pm73 °FSunny.2 mph53%29.95 "Hg10 mi
2:50 pm73 °FPassing clouds.3 mph53%29.98 "HgN/A
2:20 pm72 °FPassing clouds.3 mph57%29.98 "HgN/A
1:50 pm72 °FScattered clouds.3 mph53%29.98 "HgN/A
1:20 pm70 °FScattered clouds.2 mph57%29.98 "HgN/A
12:50 pm70 °FScattered clouds.3 mph57%29.98 "HgN/A
12:20 pm70 °FBroken clouds.5 mph57%29.98 "HgN/A
Weather by CustomWeather, © 2017

See weather overviewHow to use our weather pages